Snowfall_Accumulation
nan nan nan nan nan nan nan nan nan nan nan nan nan nan nan nan nan 0.0 0.0 0.0 0.0 0.3 0.0 0.0 0.0 0.0 0.0 0.0 1.4 0.2 1.8 0.9 1.3 5.6 3.2 4.6 1.8 0.4 0.2 0.0 0.0 0.2 2.3 3.5 2.1 6.6 7.0 0.1 0.5 4.2 2.2 1.0 0.2 0.0
nan nan nan nan nan nan nan nan nan nan nan nan nan nan nan nan nan nan 0.0 0.0 0.0 0.0 0.1 0.0 0.0 0.0 0.0 0.0 0.0 0.2 0.5 0.3 0.9 1.8 3.6 1.6 2.0 0.6 0.6 3.0 0.0 1.8 1.1 5.3 2.0 2.2 0.1 0.2 3.1 0.3 0.5 0.7 0.1 0.0
nan nan nan nan nan nan nan nan nan nan nan nan nan nan nan nan nan nan 0.0 0.0 0.0 0.1 0.0 0.0 0.0 0.0 0.0 0.0 0.0 1.0 0.1 0.0 0.2 0.1 1.7 1.1 1.5 0.5 1.3 0.2 0.4 0.0 0.0 1.8 2.0 0.1 1.7 0.8 0.0 0.0 0.0 0.0 0.0 0.0
nan nan nan nan nan nan nan nan nan nan nan nan nan nan nan nan nan nan 0.0 0.0 0.0 0.0 3.0 0.1 0.0 0.0 0.0 0.0 0.0 0.0 0.0 0.0 0.0 0.0 0.8 1.6 1.1 0.1 1.1 0.9 1.0 0.5 0.6 1.4 3.7 1.1 0.5 0.0 0.0 0.0 0.0 0.0 0.0 0.0
nan nan nan nan nan nan nan nan nan nan nan nan nan nan nan nan nan nan 0.0 0.0 0.0 0.6 2.6 0.5 0.0 0.0 0.0 0.0 0.0 0.0 0.0 0.0 0.1 0.5 1.7 1.3 0.0 0.3 0.0 0.0 0.0 0.0 1.3 5.3 4.1 0.3 1.2 0.0 0.0 0.0 0.0 0.0 0.0 0.0
nan nan nan nan nan nan nan nan nan nan nan nan nan nan nan nan nan 0.0 3.2 0.0 0.0 0.0 3.3 2.0 0.0 0.0 0.0 0.0 0.0 0.0 0.0 0.0 0.1 0.5 0.7 0.2 0.0 0.3 2.2 0.6 0.0 0.0 0.0 0.0 1.1 0.2 0.4 0.2 0.0 0.0 0.0 0.0 0.0 0.0
nan nan nan nan nan nan nan nan nan nan nan nan nan nan nan nan 0.0 0.1 0.1 0.0 nan 0.0 1.6 1.8 0.2 0.0 0.0 0.0 0.2 0.4 0.1 0.1 0.1 0.4 0.7 0.0 0.0 1.0 2.2 0.5 0.1 0.1 0.1 0.1 0.1 0.2 0.4 0.0 0.0 0.0 0.0 0.0 0.0 0.0
nan nan nan nan nan nan nan nan nan nan nan nan nan nan nan nan nan 0.0 0.0 nan nan 0.0 0.0 1.9 0.5 0.0 0.0 0.3 2.0 0.4 0.9 0.5 1.2 0.4 0.5 0.1 0.1 0.3 1.8 0.0 0.0 0.0 0.0 0.0 0.0 0.0 0.0 0.0 0.0 0.0 0.0 0.0 0.0 0.0
nan nan nan nan nan nan nan nan nan nan nan nan nan nan 0.0 0.0 0.2 0.0 nan nan 0.0 0.5 2.8 1.2 0.6 3.5 0.0 0.3 0.6 1.4 1.3 5.1 0.2 1.0 0.4 0.3 0.9 2.5 0.1 0.0 0.0 0.0 0.3 0.1 0.0 0.0 0.0 0.0 0.0 0.0 0.0 0.0 0.0 0.0
nan nan nan nan nan nan nan nan nan nan nan nan 0.0 0.8 8.4 0.1 nan nan 0.0 2.0 2.4 1.1 1.2 1.4 0.0 0.8 0.3 0.9 2.6 4.9 3.2 5.1 4.3 0.8 0.3 1.4 0.5 0.0 0.0 0.0 0.4 0.1 0.1 0.0 0.0 0.0 0.0 0.0 0.0 0.0 0.0 0.0 0.1 0.1
nan nan nan nan nan nan nan nan nan nan nan 0.0 1.1 1.7 0.0 nan 0.1 1.2 9.1 6.0 2.6 2.9 0.1 0.2 0.2 2.1 0.5 3.6 3.2 0.8 2.5 2.5 5.1 5.7 3.2 2.5 4.6 5.1 0.1 0.0 0.0 0.0 0.0 0.0 0.0 0.0 0.0 0.0 0.0 0.0 0.0 0.0 0.0 0.0
nan nan nan nan nan nan nan nan nan 0.0 0.0 0.0 0.1 0.0 0.0 0.7 3.2 4.3 3.7 1.5 0.5 0.3 0.1 0.3 0.2 2.1 1.3 0.4 2.7 2.1 2.0 3.4 2.2 0.8 4.9 6.2 1.7 0.0 0.0 0.0 0.0 0.0 0.0 0.0 0.0 0.0 0.0 0.0 0.0 0.0 0.0 0.0 0.0 0.0
nan nan nan nan nan nan nan nan nan nan nan 0.0 0.6 1.5 2.2 4.3 34.5 3.9 4.5 1.7 4.5 0.9 0.7 1.7 4.6 0.7 2.2 1.4 1.2 1.1 3.6 5.6 0.5 6.2 1.8 1.9 0.4 0.0 0.0 0.4 0.0 0.0 0.0 0.0 0.0 0.0 0.0 0.0 0.0 0.0 0.0 0.0 0.0 0.2
nan nan nan nan nan nan nan nan nan 0.0 0.0 1.5 2.5 38.2 8.4 7.1 2.1 3.2 1.8 1.9 1.8 1.8 1.2 0.8 0.8 1.1 0.4 1.4 1.6 2.5 0.7 0.6 5.6 1.6 3.7 1.8 0.2 0.0 0.0 0.0 0.0 0.0 0.0 0.0 0.0 0.0 0.1 0.2 0.9 0.7 2.3 3.1 2.7 3.1
nan nan nan nan nan nan nan nan nan 0.0 0.5 2.3 2.1 25.6 5.2 1.1 0.9 1.4 0.9 1.1 0.4 0.2 0.3 0.9 0.6 1.2 3.0 3.8 1.3 0.4 2.6 2.9 1.3 3.4 2.1 0.7 0.1 0.0 0.0 0.1 0.1 0.1 0.7 0.3 0.1 0.4 2.9 3.0 2.1 2.6 3.3 2.0 1.4 4.6
nan nan 0.0 nan nan nan nan nan 0.0 0.0 0.4 0.9 0.3 1.7 0.9 2.8 6.4 4.7 2.3 1.9 0.2 0.2 0.2 1.0 2.8 3.7 3.1 1.0 0.6 1.2 0.3 1.4 3.1 1.7 0.7 0.7 0.1 0.1 0.1 0.2 0.2 0.1 0.1 0.1 0.1 0.1 0.7 2.4 1.7 1.2 2.1 2.3 5.2 4.1
nan 0.0 nan nan nan nan nan 0.0 0.2 0.5 1.0 0.2 6.4 1.3 2.6 1.8 3.8 3.0 1.3 0.6 0.1 0.5 4.6 2.3 2.0 0.9 1.2 2.6 2.5 3.2 7.7 7.3 4.1 2.4 1.2 0.1 0.1 0.1 0.4 0.5 1.7 0.5 0.1 0.2 0.2 0.2 0.5 0.9 1.0 0.1 0.3 0.5 0.3 0.7
0.0 0.0 nan nan nan nan 0.1 0.0 0.2 0.4 0.5 1.2 6.5 4.0 1.9 2.4 3.9 2.6 1.2 0.3 0.2 0.3 0.6 1.3 0.9 0.7 4.6 1.2 2.3 2.4 1.9 1.6 1.5 1.4 1.2 0.5 0.1 0.3 0.1 0.2 0.5 0.3 0.2 0.5 0.6 0.7 0.8 1.3 0.2 0.7 0.1 0.1 0.3 0.3
0.0 0.0 nan nan 0.0 0.0 0.2 0.2 0.1 0.8 1.8 1.1 1.2 0.9 1.0 2.4 0.9 0.5 0.6 0.3 0.2 0.0 1.0 1.1 0.5 2.1 2.2 1.6 2.8 3.0 2.7 1.6 1.5 1.1 1.0 0.2 0.2 0.4 0.7 0.4 0.4 0.3 0.3 0.2 0.1 0.5 0.5 0.1 0.3 0.4 0.3 0.3 0.5 0.5
nan nan nan nan nan 0.0 0.0 0.3 0.0 0.1 0.7 1.1 0.3 0.5 0.6 1.1 0.7 2.2 1.1 0.5 0.4 1.4 2.8 2.4 1.9 1.8 1.8 1.8 1.6 2.0 1.5 1.2 1.0 1.4 1.7 1.4 1.1 0.2 0.2 0.4 0.9 0.3 0.6 0.1 0.5 0.1 0.4 0.3 0.2 0.3 0.3 0.4 0.9 1.4
nan nan nan 0.0 0.0 0.0 0.2 0.1 0.1 0.2 0.2 0.4 0.3 0.2 0.9 0.3 1.0 1.6 1.5 0.4 4.3 3.4 2.2 1.9 3.0 2.4 1.4 2.5 1.8 1.7 1.8 0.6 1.0 0.9 1.3 1.8 1.4 0.9 0.9 0.9 1.0 1.1 1.1 1.0 1.5 1.1 0.5 0.8 0.6 0.4 3.5 5.6 2.9 2.2
0.0 nan 0.0 0.0 0.2 0.1 0.6 0.0 0.1 0.1 0.2 0.2 0.2 0.2 0.9 4.5 4.0 2.1 0.5 1.5 2.2 2.6 2.4 2.6 3.1 1.7 2.0 2.7 2.5 1.5 1.4 1.1 0.9 0.9 0.3 0.3 1.0 0.9 1.1 1.3 1.1 1.8 1.4 1.9 1.3 2.0 1.0 0.5 0.7 0.9 3.2 6.6 2.3 2.9
nan 0.0 0.2 0.1 0.8 7.4 20.1 0.1 0.1 0.0 0.6 0.5 0.3 0.4 1.2 1.0 0.7 0.1 2.1 1.4 3.2 2.8 3.1 3.6 2.6 2.0 2.0 1.6 1.0 0.7 0.3 0.1 0.6 0.7 0.8 0.7 0.6 0.8 0.9 1.0 1.2 3.1 2.9 2.1 1.3 1.8 2.3 1.7 2.0 5.8 3.5 4.6 5.5 14.5
nan 0.4 3.6 2.0 3.8 18.7 0.6 4.3 0.3 0.3 0.3 0.8 0.9 1.3 0.2 0.6 0.3 1.2 1.9 2.3 3.6 1.8 1.8 1.1 1.0 1.0 0.7 0.2 0.6 0.5 0.3 0.2 0.2 0.3 0.4 0.4 0.6 0.8 0.5 0.6 1.1 1.2 1.3 1.3 1.6 2.8 3.0 7.5 5.9 4.1 9.7 17.0 22.0 20.8
13.3 20.2 5.1 38.4 1.6 6.5 5.2 3.7 1.7 0.8 3.4 2.6 1.9 2.0 5.1 0.4 3.6 2.8 1.5 4.4 2.2 3.5 2.4 1.3 0.6 0.5 0.5 0.6 0.4 0.4 0.0 0.3 0.5 0.6 0.5 0.5 0.8 0.8 0.7 0.5 0.6 0.8 1.0 5.1 7.2 9.6 10.7 10.4 11.0 11.5 7.8 20.9 9.2 10.7
36.3 11.8 27.4 2.6 6.5 3.2 1.4 5.6 5.6 5.8 3.2 4.3 2.8 1.3 1.3 3.8 4.2 4.4 3.1 5.3 5.8 2.9 9.8 6.4 2.6 1.0 0.9 0.4 0.6 0.9 0.7 0.5 0.6 0.8 0.7 0.4 0.5 2.9 5.1 4.2 2.9 1.9 1.4 3.5 7.6 13.5 9.9 11.2 13.8 7.7 14.2 8.7 8.9 20.6
32.2 14.3 0.5 0.1 0.3 0.1 5.8 4.2 0.4 2.8 4.7 6.7 3.2 4.9 4.9 13.1 8.8 4.9 4.3 2.9 2.6 2.9 1.3 0.9 0.9 1.0 1.1 0.9 0.8 1.3 1.1 1.1 1.0 1.1 0.7 0.6 0.8 1.2 4.2 8.4 5.3 2.9 1.6 3.6 6.0 13.3 15.9 16.5 18.6 13.0 16.8 17.6 19.6 22.4
2.5 1.2 11.0 3.4 7.0 0.8 6.5 4.5 4.5 5.4 2.9 2.6 3.5 7.0 9.2 8.8 7.0 6.8 4.4 2.6 3.5 1.1 1.0 1.0 0.9 0.8 0.9 1.3 1.9 3.9 4.7 4.1 5.2 3.5 2.6 2.1 2.1 5.2 5.7 5.4 4.7 7.0 5.7 11.6 12.5 13.9 12.3 19.6 22.5 22.2 20.3 21.3 25.6 22.4
3.5 1.2 1.7 14.7 6.4 3.7 5.7 6.5 4.9 2.1 1.7 2.5 14.1 6.9 5.8 3.5 7.9 5.7 4.8 4.1 2.9 2.6 3.8 5.3 9.4 8.4 4.9 3.8 6.1 5.4 7.0 8.9 7.7 10.1 10.6 14.6 12.7 9.8 6.5 7.3 7.8 10.3 9.9 11.2 7.2 8.7 11.1 15.8 18.6 21.3 20.7 24.9 25.5 30.1
3.7 0.9 4.8 6.2 11.6 6.0 8.3 6.2 7.8 4.7 0.5 1.8 1.4 2.2 3.0 9.6 11.9 3.8 5.5 5.3 8.9 19.0 23.5 18.4 19.5 17.4 26.0 20.4 18.7 13.6 14.0 15.6 14.2 18.7 22.8 18.1 14.0 12.0 13.3 16.3 15.9 15.2 14.6 26.1 17.7 10.2 8.7 17.8 15.8 26.4 26.4 25.6 27.9 31.2
1.5 5.4 8.1 3.8 8.3 11.1 10.8 12.3 11.7 5.6 6.3 13.1 13.0 17.4 14.5 11.1 13.4 9.5 7.0 10.9 9.9 26.9 29.8 34.6 33.6 32.1 28.8 21.0 29.0 27.5 20.5 25.9 13.1 9.5 9.4 15.2 15.8 18.9 19.2 17.2 17.6 20.1 21.3 20.6 25.5 20.9 20.7 24.0 24.6 26.3 21.7 20.7 22.4 23.9
8.4 14.0 19.6 12.9 13.0 18.4 8.8 22.9 19.4 17.9 20.5 23.0 26.6 20.2 28.6 26.7 20.0 15.5 18.1 23.2 26.5 29.3 9.4 24.5 35.7 21.1 16.9 16.3 24.5 20.0 10.1 13.8 14.5 14.9 11.8 17.8 20.2 21.2 13.2 11.2 23.3 23.5 20.4 22.8 20.2 21.9 18.2 24.3 25.7 28.2 26.3 24.4 23.2 21.1
22.8 16.8 12.4 14.0 25.5 12.7 16.1 19.4 5.2 17.2 19.0 22.9 26.9 22.7 24.7 24.5 18.4 21.8 9.4 22.3 27.5 26.1 22.8 27.4 30.6 33.5 19.5 16.4 17.2 19.2 14.1 18.8 17.1 10.6 9.3 9.3 9.3 10.5 17.9 23.7 26.1 21.5 14.4 19.4 22.1 22.1 18.2 16.0 19.2 20.7 22.5 24.7 22.8 21.3
Water_Equivalent
nan nan nan nan nan nan nan nan nan nan nan nan nan nan nan nan nan 0.00 0.00 0.00 0.00 0.08 0.00 0.00 0.00 0.00 0.01 0.00 0.27 0.04 0.38 0.17 0.30 0.98 0.48 0.55 0.26 0.05 0.03 0.00 0.00 0.04 0.37 0.60 0.35 0.95 0.89 0.03 0.08 0.55 0.36 0.25 0.04 0.00
nan nan nan nan nan nan nan nan nan nan nan nan nan nan nan nan nan nan 0.00 0.00 0.00 0.00 0.01 0.00 0.00 0.00 0.00 0.00 0.01 0.04 0.09 0.06 0.21 0.39 0.60 0.28 0.30 0.14 0.08 0.60 0.00 0.29 0.17 0.76 0.35 0.34 0.02 0.03 0.47 0.06 0.09 0.12 0.02 0.00
nan nan nan nan nan nan nan nan nan nan nan nan nan nan nan nan nan nan 0.00 0.00 0.00 0.01 0.00 0.00 0.00 0.00 0.00 0.00 0.00 0.25 0.03 0.01 0.05 0.02 0.36 0.21 0.18 0.07 0.23 0.05 0.07 0.00 0.00 0.35 0.28 0.03 0.29 0.14 0.00 0.01 0.01 0.00 0.00 0.00
nan nan nan nan nan nan nan nan nan nan nan nan nan nan nan nan nan nan 0.00 0.00 0.00 0.00 0.64 0.03 0.00 0.00 0.00 0.00 0.00 0.00 0.00 0.00 0.00 0.01 0.14 0.28 0.19 0.02 0.25 0.22 0.18 0.15 0.16 0.21 0.55 0.18 0.08 0.00 0.00 0.00 0.00 0.00 0.00 0.00
nan nan nan nan nan nan nan nan nan nan nan nan nan nan nan nan nan nan 0.00 0.00 0.00 0.12 0.53 0.09 0.00 0.00 0.00 0.00 0.00 0.00 0.00 0.00 0.01 0.08 0.32 0.22 0.00 0.05 0.00 0.00 0.01 0.01 0.19 0.89 0.66 0.06 0.18 0.00 0.00 0.00 0.00 0.00 0.00 0.00
nan nan nan nan nan nan nan nan nan nan nan nan nan nan nan nan nan 0.00 1.22 0.00 0.00 0.00 0.55 0.37 0.00 0.00 0.00 0.00 0.00 0.00 0.00 0.00 0.01 0.07 0.11 0.03 0.00 0.07 0.52 0.14 0.01 0.00 0.00 0.01 0.19 0.03 0.07 0.03 0.00 0.00 0.00 0.00 0.00 0.00
nan nan nan nan nan nan nan nan nan nan nan nan nan nan nan nan 0.00 0.01 0.01 0.00 nan 0.00 0.32 0.36 0.04 0.00 0.00 0.00 0.06 0.11 0.02 0.02 0.02 0.06 0.12 0.00 0.00 0.17 0.41 0.13 0.02 0.02 0.01 0.02 0.01 0.05 0.07 0.00 0.00 0.00 0.00 0.00 0.00 0.00
nan nan nan nan nan nan nan nan nan nan nan nan nan nan nan nan nan 0.00 0.00 nan nan 0.00 0.01 0.42 0.16 0.01 0.00 0.09 0.42 0.10 0.21 0.09 0.24 0.08 0.12 0.02 0.01 0.07 0.33 0.00 0.01 0.00 0.00 0.00 0.00 0.00 0.00 0.00 0.00 0.00 0.00 0.00 0.00 0.00
nan nan nan nan nan nan nan nan nan nan nan nan nan nan 0.00 0.00 0.07 0.00 nan nan 0.00 0.12 0.54 0.37 0.20 1.09 0.00 0.05 0.11 0.29 0.26 0.91 0.06 0.23 0.09 0.06 0.21 0.47 0.03 0.00 0.01 0.01 0.05 0.01 0.00 0.00 0.00 0.00 0.00 0.00 0.00 0.00 0.00 0.00
nan nan nan nan nan nan nan nan nan nan nan nan 0.00 0.26 2.79 0.04 nan nan 0.01 0.57 0.65 0.26 0.19 0.27 0.00 0.25 0.07 0.18 0.48 0.91 0.57 0.90 0.65 0.18 0.04 0.26 0.13 0.00 0.00 0.00 0.08 0.02 0.01 0.00 0.00 0.00 0.00 0.00 0.00 0.00 0.00 0.00 0.02 0.02
nan nan nan nan nan nan nan nan nan nan nan 0.00 0.38 0.51 0.00 nan 0.03 0.29 2.05 1.19 0.56 0.57 0.03 0.05 0.03 0.34 0.08 0.62 0.55 0.18 0.50 0.45 0.82 0.76 0.51 0.41 0.64 1.19 0.02 0.00 0.00 0.00 0.00 0.00 0.00 0.00 0.00 0.00 0.00 0.00 0.00 0.00 0.00 0.00
nan nan nan nan nan nan nan nan nan 0.00 0.00 0.00 0.03 0.00 0.00 0.24 0.80 0.73 0.86 0.37 0.12 0.05 0.05 0.08 0.06 0.29 0.26 0.06 0.43 0.40 0.41 0.71 0.35 0.17 1.00 0.97 0.30 0.00 0.00 0.00 0.00 0.00 0.00 0.00 0.00 0.00 0.00 0.00 0.00 0.00 0.00 0.00 0.00 0.00
nan nan nan nan nan nan nan nan nan nan nan 0.00 0.19 0.34 0.62 1.20 5.41 0.89 1.01 0.41 1.26 0.24 0.22 0.33 1.17 0.15 0.41 0.26 0.31 0.23 1.07 1.65 0.15 1.61 0.38 0.33 0.07 0.00 0.00 0.17 0.01 0.00 0.00 0.00 0.00 0.00 0.00 0.00 0.00 0.00 0.00 0.00 0.01 0.04
nan nan nan nan nan nan nan nan nan 0.00 0.00 0.41 0.56 5.29 2.27 1.75 0.47 0.58 0.34 0.40 0.46 0.38 0.24 0.19 0.23 0.27 0.17 0.36 0.56 0.75 0.26 0.20 1.59 0.41 0.56 0.31 0.03 0.01 0.00 0.00 0.00 0.00 0.01 0.00 0.00 0.00 0.02 0.04 0.21 0.19 0.58 0.81 0.61 0.61
nan nan nan nan nan nan nan nan nan 0.00 0.15 0.58 0.49 3.04 1.27 0.34 0.33 0.43 0.32 0.32 0.16 0.06 0.10 0.24 0.19 0.28 0.82 1.13 0.38 0.14 0.83 0.91 0.38 0.59 0.38 0.19 0.02 0.01 0.01 0.01 0.02 0.02 0.19 0.07 0.02 0.09 0.65 0.63 0.44 0.52 0.68 0.45 0.27 0.93
nan nan 0.00 nan nan nan nan nan 0.00 0.01 0.15 0.24 0.08 0.53 0.32 0.96 2.22 1.89 0.90 0.77 0.09 0.10 0.09 0.27 0.55 0.74 0.68 0.34 0.16 0.39 0.08 0.31 0.57 0.37 0.19 0.17 0.02 0.03 0.03 0.05 0.05 0.04 0.03 0.02 0.03 0.04 0.15 0.47 0.35 0.23 0.37 0.39 1.12 0.88
nan 0.00 nan nan nan nan nan 0.01 0.06 0.11 0.27 0.04 1.98 0.48 0.93 0.63 1.29 1.12 0.54 0.22 0.06 0.15 1.47 0.55 0.40 0.13 0.24 0.50 0.32 0.50 1.33 1.19 0.69 0.42 0.28 0.04 0.03 0.04 0.09 0.12 0.42 0.11 0.04 0.04 0.04 0.06 0.11 0.17 0.18 0.03 0.06 0.09 0.05 0.11
0.00 0.00 nan nan nan nan 0.04 0.01 0.09 0.12 0.09 0.37 1.79 1.24 0.61 0.83 1.33 1.01 0.47 0.11 0.09 0.10 0.15 0.22 0.20 0.13 1.21 0.24 0.55 0.49 0.40 0.35 0.33 0.35 0.32 0.14 0.04 0.07 0.03 0.06 0.13 0.07 0.05 0.12 0.13 0.13 0.15 0.24 0.04 0.19 0.03 0.03 0.06 0.05
0.00 0.00 nan nan 0.00 0.00 0.09 0.05 0.02 0.22 0.52 0.35 0.37 0.29 0.33 0.79 0.33 0.21 0.24 0.12 0.07 0.01 0.28 0.28 0.11 0.43 0.52 0.34 0.60 0.63 0.58 0.39 0.37 0.29 0.24 0.06 0.04 0.09 0.17 0.10 0.09 0.07 0.06 0.03 0.02 0.14 0.12 0.02 0.08 0.10 0.10 0.09 0.12 0.12
nan nan nan nan nan 0.01 0.00 0.12 0.00 0.04 0.21 0.32 0.11 0.15 0.21 0.33 0.27 0.90 0.41 0.17 0.12 0.33 0.57 0.42 0.39 0.45 0.41 0.44 0.36 0.38 0.33 0.30 0.21 0.28 0.34 0.31 0.30 0.05 0.05 0.10 0.22 0.08 0.14 0.03 0.13 0.03 0.11 0.09 0.07 0.08 0.09 0.10 0.24 0.35
nan nan nan 0.00 0.00 0.00 0.06 0.06 0.02 0.05 0.08 0.13 0.10 0.06 0.27 0.12 0.33 0.57 0.45 0.11 1.10 0.65 0.42 0.42 0.74 0.54 0.27 0.52 0.35 0.32 0.31 0.12 0.19 0.19 0.25 0.34 0.30 0.21 0.22 0.24 0.26 0.26 0.25 0.24 0.40 0.27 0.13 0.21 0.15 0.12 1.18 1.85 0.89 0.66
0.00 nan 0.01 0.00 0.07 0.04 0.20 0.00 0.03 0.02 0.09 0.08 0.08 0.06 0.30 1.49 1.35 0.70 0.14 0.43 0.42 0.50 0.49 0.49 0.59 0.34 0.36 0.40 0.41 0.20 0.19 0.14 0.12 0.17 0.07 0.08 0.24 0.21 0.26 0.31 0.26 0.40 0.34 0.49 0.31 0.54 0.27 0.13 0.21 0.29 0.98 2.02 0.64 0.80
nan 0.01 0.06 0.03 0.27 0.96 2.16 0.03 0.02 0.02 0.22 0.19 0.11 0.14 0.41 0.34 0.23 0.02 0.58 0.23 0.56 0.51 0.52 0.57 0.37 0.30 0.30 0.22 0.13 0.09 0.03 0.02 0.16 0.20 0.21 0.18 0.15 0.22 0.23 0.25 0.30 0.81 0.67 0.43 0.28 0.43 0.56 0.51 0.56 1.73 1.07 1.24 1.35 3.29
nan 0.13 1.16 0.67 0.57 2.76 0.22 1.31 0.09 0.11 0.13 0.29 0.32 0.36 0.06 0.20 0.11 0.35 0.46 0.45 0.60 0.31 0.30 0.15 0.18 0.19 0.13 0.03 0.11 0.10 0.09 0.05 0.07 0.09 0.13 0.12 0.16 0.18 0.14 0.15 0.27 0.30 0.28 0.27 0.38 0.70 0.75 2.12 1.85 0.93 2.37 4.39 5.45 4.53
1.82 3.23 1.71 3.98 0.61 1.99 1.57 1.20 0.48 0.24 0.89 0.78 0.47 0.60 1.49 0.14 0.92 0.69 0.24 0.68 0.45 0.69 0.46 0.27 0.14 0.12 0.11 0.16 0.11 0.10 0.01 0.07 0.12 0.14 0.13 0.13 0.20 0.22 0.17 0.12 0.15 0.18 0.26 1.43 1.97 2.70 2.87 2.79 2.94 2.88 1.78 5.18 1.81 2.25
4.61 3.62 3.14 0.89 2.01 1.02 0.44 1.32 1.37 1.58 0.84 1.06 0.80 0.40 0.44 1.06 0.91 0.87 0.45 0.96 1.23 0.59 2.45 1.64 0.67 0.24 0.18 0.09 0.14 0.17 0.16 0.13 0.15 0.18 0.15 0.11 0.15 0.73 1.11 0.89 0.61 0.44 0.36 1.02 2.07 3.59 2.55 2.94 3.44 1.72 3.27 1.94 2.54 4.39
3.93 3.50 0.17 0.04 0.09 0.05 1.54 1.34 0.17 0.81 1.10 1.43 0.77 1.23 1.31 2.25 1.73 0.70 0.67 0.49 0.43 0.55 0.29 0.24 0.22 0.22 0.22 0.17 0.17 0.27 0.23 0.27 0.23 0.22 0.19 0.15 0.19 0.25 0.90 1.82 1.00 0.58 0.40 1.01 1.73 4.06 4.18 4.01 4.29 2.84 3.51 3.82 4.23 4.58
0.64 0.34 1.59 1.03 1.83 0.25 1.45 1.01 1.09 1.24 0.67 0.48 0.81 1.46 1.90 1.67 1.04 1.03 0.65 0.48 0.79 0.27 0.25 0.26 0.22 0.18 0.19 0.26 0.38 0.68 0.89 0.78 0.98 0.70 0.53 0.45 0.42 0.97 1.05 1.10 0.97 2.30 1.27 2.74 3.42 3.78 3.02 4.62 5.00 4.90 4.24 4.29 4.77 4.44
0.87 0.38 0.49 1.78 1.06 0.85 1.20 1.41 1.04 0.44 0.32 0.64 2.80 1.27 0.97 0.50 1.23 0.87 0.69 0.70 0.67 0.58 0.73 0.97 1.45 1.78 0.93 0.75 1.22 1.01 1.33 1.64 1.40 1.57 2.02 2.05 2.13 1.71 1.16 1.36 1.47 1.99 1.93 2.20 2.36 2.44 2.58 3.32 3.90 4.39 4.55 4.99 4.75 5.19
0.84 0.30 1.14 1.26 1.33 0.95 1.94 1.42 1.81 1.22 0.13 0.44 0.32 0.36 0.43 1.28 1.58 0.69 0.89 0.88 1.34 3.18 4.79 3.73 3.46 3.28 4.79 3.35 2.82 2.11 2.34 3.01 2.58 3.57 3.89 2.78 2.30 2.05 2.38 3.07 3.05 2.96 2.88 5.50 3.15 1.55 2.52 3.32 3.82 4.97 4.27 3.83 4.20 4.51
0.44 1.59 1.97 0.93 1.63 2.84 2.66 3.11 3.12 1.42 1.61 3.06 3.06 3.41 2.37 1.61 1.89 1.30 0.97 1.50 1.55 5.56 6.07 6.40 6.15 6.41 5.09 3.20 5.14 4.57 2.97 4.71 1.97 1.44 1.44 2.27 2.67 3.53 3.73 3.23 3.37 3.88 4.09 3.79 4.72 3.34 3.11 3.86 4.21 4.28 3.05 2.78 2.78 2.90
2.14 3.59 3.01 1.76 2.46 4.43 2.21 5.54 4.37 3.89 4.81 4.49 5.18 4.35 5.09 4.28 2.58 1.84 2.09 3.21 4.18 4.82 2.81 3.99 6.01 2.80 2.64 2.44 4.05 3.13 3.16 1.86 1.93 1.96 2.02 2.67 3.31 3.76 2.30 1.90 4.51 4.58 3.72 4.04 3.38 3.51 2.87 3.62 3.47 3.89 3.36 3.05 2.78 2.44
5.45 3.84 2.56 2.36 4.82 2.76 3.21 4.11 1.12 3.63 3.24 3.81 4.64 3.99 4.17 3.47 2.20 2.65 1.19 2.97 3.84 4.01 3.30 4.52 4.85 5.79 2.97 2.54 2.33 2.61 3.08 2.32 2.86 3.49 3.08 3.07 3.06 2.95 2.77 4.08 4.85 3.73 2.29 3.20 3.60 3.22 2.77 2.10 2.22 2.58 2.67 2.99 2.68 2.45
SL_Ratio
nan nan nan nan nan nan nan nan nan nan nan nan nan nan nan nan nan nan nan nan nan 3.9 nan nan nan nan 4.8 5.0 5.2 5.6 4.8 5.1 4.3 5.7 6.6 8.3 6.9 7.1 5.7 10.0 nan 6.2 6.3 5.9 6.0 7.0 8.0 5.1 6.0 7.6 6.1 3.8 5.4 nan
nan nan nan nan nan nan nan nan nan nan nan nan nan nan nan nan nan nan 2.5 nan nan 5.0 4.2 nan nan nan nan nan 4.4 4.3 5.3 4.5 4.3 4.7 6.1 5.8 6.8 4.5 7.5 5.1 nan 6.1 6.5 6.9 5.8 6.5 4.6 5.1 6.7 5.7 5.7 5.8 6.0 nan
nan nan nan nan nan nan nan nan nan nan nan nan nan nan nan nan nan nan 0.0 nan nan 3.6 nan 3.3 nan nan nan nan nan 4.0 3.5 2.6 3.6 3.6 4.8 5.4 8.0 6.9 5.7 4.6 6.3 6.7 nan 5.1 7.3 4.8 6.0 5.7 nan 5.0 5.4 6.0 nan nan
nan nan nan nan nan nan nan nan nan nan nan nan nan nan nan nan nan nan nan nan nan 3.3 4.8 3.5 nan nan nan nan nan nan nan nan 5.4 6.3 6.0 5.8 5.9 5.8 4.5 4.0 5.4 3.1 3.6 6.6 6.7 6.3 5.5 nan nan nan nan nan nan nan
nan nan nan nan nan nan nan nan nan nan nan nan nan nan nan nan nan nan nan nan nan 5.2 5.0 5.2 nan nan nan nan nan nan nan 10.0 7.3 5.9 5.2 5.7 7.1 6.6 nan 6.7 3.3 5.7 6.7 5.9 6.2 6.2 6.7 6.7 nan nan nan 0.0 nan nan
nan nan nan nan nan nan nan nan nan nan nan nan nan nan nan nan nan nan 2.6 nan nan nan 6.0 5.3 5.0 nan nan nan nan nan nan 5.7 6.8 7.0 5.8 7.2 nan 4.1 4.2 4.4 4.1 0.0 6.0 4.7 5.6 5.4 6.1 6.1 nan nan nan nan nan nan
nan nan nan nan nan nan nan nan nan nan nan nan nan nan nan nan nan 4.0 3.6 nan nan nan 4.9 5.1 4.0 nan nan nan 3.5 3.6 3.5 3.5 6.1 7.3 6.4 7.5 8.6 5.7 5.5 3.8 5.3 5.0 4.9 4.8 4.7 4.7 5.6 nan nan nan nan nan nan nan
nan nan nan nan nan nan nan nan nan nan nan nan nan nan nan nan nan 4.0 nan nan nan nan 6.5 4.6 3.0 2.8 nan 3.4 4.7 4.2 4.3 5.3 5.0 5.2 4.6 6.5 6.0 4.6 5.4 5.0 5.2 10.0 5.0 nan nan nan 6.7 nan nan nan nan nan nan nan
nan nan nan nan nan nan nan nan nan nan nan nan nan nan nan nan 3.6 nan nan nan nan 4.3 5.1 3.2 3.0 3.2 nan 5.1 5.1 4.8 4.9 5.6 3.9 4.4 4.1 6.1 4.3 5.3 3.0 nan 6.9 5.9 5.9 5.9 nan nan nan nan nan nan nan nan 0.0 nan
nan nan nan nan nan nan nan nan nan nan nan nan nan 3.3 3.0 2.5 nan nan 3.4 3.5 3.7 4.4 6.1 5.0 4.3 3.1 4.7 4.7 5.5 5.3 5.6 5.7 6.5 4.4 6.1 5.3 4.0 nan nan 4.2 4.4 5.3 5.8 5.6 nan nan nan nan nan nan nan nan 5.6 5.8
nan nan nan nan nan nan nan nan nan nan nan nan 3.0 3.2 nan nan 3.7 4.0 4.4 5.1 4.6 5.1 4.2 3.7 7.4 6.1 6.2 5.8 5.8 4.7 5.0 5.6 6.1 7.6 6.2 6.2 7.2 4.3 5.8 10.0 nan nan nan 10.0 nan 0.0 nan 6.3 7.1 nan nan nan 0.0 6.0
nan nan nan nan nan nan nan nan nan nan nan nan 2.7 nan 2.0 3.1 4.0 5.9 4.3 4.1 4.6 5.1 2.7 3.0 3.6 7.2 5.1 5.9 6.3 5.2 5.0 4.8 6.3 4.7 4.9 6.4 5.8 5.0 nan nan nan nan nan nan nan nan nan nan 6.7 nan nan 5.0 nan 10.0
nan nan nan nan nan nan nan nan nan nan nan nan 3.2 4.4 3.6 3.6 6.4 4.4 4.5 4.1 3.6 3.8 3.3 5.1 4.0 4.5 5.2 5.4 3.8 4.7 3.3 3.4 3.5 3.9 4.8 5.7 5.8 6.0 nan 2.5 2.5 nan nan nan nan nan nan nan nan nan 6.7 nan 3.6 4.2
nan nan nan nan nan nan nan nan nan nan nan 3.5 4.5 7.2 3.7 4.1 4.5 5.5 5.3 4.8 3.9 4.9 4.9 4.3 3.5 4.2 2.6 3.9 2.9 3.4 2.6 3.2 3.5 4.0 6.6 5.8 5.5 3.8 nan 10.0 nan nan 2.7 2.9 5.0 2.9 3.6 3.8 4.3 3.9 3.9 3.8 4.4 5.1
nan nan nan nan nan nan nan nan nan nan 3.1 4.1 4.3 8.4 4.1 3.2 2.8 3.3 2.8 3.3 2.5 2.5 3.0 3.7 3.4 4.4 3.7 3.4 3.3 2.7 3.1 3.2 3.6 5.7 5.4 3.7 3.7 3.3 3.4 5.6 4.3 3.4 3.6 3.7 3.5 4.0 4.4 4.8 4.8 5.0 4.8 4.5 4.9 4.9
nan nan nan nan nan nan nan nan nan 2.7 2.9 3.8 4.1 3.3 2.7 2.9 2.9 2.5 2.5 2.5 2.5 2.5 2.5 3.8 5.0 5.0 4.6 2.9 4.0 3.0 3.3 4.3 5.4 4.6 3.9 3.9 3.7 3.5 4.0 4.8 4.6 4.2 4.0 3.5 3.5 3.7 4.7 5.1 4.9 5.2 5.7 5.8 4.7 4.7
nan nan nan nan nan nan nan 2.6 2.5 4.2 3.6 5.0 3.2 2.7 2.8 2.9 2.9 2.7 2.5 2.5 2.5 3.3 3.1 4.2 5.0 6.8 5.0 5.2 7.8 6.4 5.8 6.2 6.0 5.8 4.2 3.9 3.6 3.5 4.2 4.0 4.1 4.1 3.8 3.8 3.9 4.2 4.8 5.2 5.5 5.1 5.5 5.6 5.6 6.0
nan nan nan nan nan nan 2.5 2.5 2.5 3.0 5.7 3.4 3.6 3.3 3.1 2.9 2.9 2.6 2.5 2.5 2.6 3.0 3.7 5.7 4.5 5.0 3.8 5.2 4.2 5.0 4.8 4.6 4.7 3.9 3.7 3.5 3.5 4.0 3.8 3.7 3.9 3.8 3.9 4.4 4.9 5.1 5.4 5.3 5.1 3.8 4.4 4.6 5.1 5.2
nan nan nan nan nan nan 2.6 3.2 3.2 3.8 3.4 3.1 3.2 3.0 3.0 3.0 2.6 2.5 2.5 2.6 2.5 2.9 3.7 4.1 4.7 4.8 4.2 4.9 4.7 4.8 4.6 4.1 4.1 3.9 4.1 4.2 3.9 4.0 3.9 3.9 4.2 4.1 4.7 4.5 4.5 3.8 3.7 3.9 3.5 3.5 3.4 3.5 4.1 3.8
nan nan nan nan nan 2.4 5.0 2.8 nan 3.5 3.2 3.4 2.5 3.0 3.1 3.3 2.7 2.5 2.6 3.1 3.0 4.2 4.8 5.7 4.9 4.1 4.4 4.2 4.5 5.1 4.6 4.1 5.0 5.0 5.0 4.3 3.8 4.2 4.3 4.1 3.9 4.0 4.0 4.0 3.8 3.4 3.7 3.7 3.4 3.2 3.3 3.6 4.0 4.2
nan nan nan nan nan 0.0 2.6 2.5 3.3 3.2 2.7 3.2 3.0 2.9 3.3 2.5 2.9 2.8 3.3 3.5 3.9 5.2 5.3 4.6 4.1 4.5 5.3 4.8 5.0 5.3 5.9 5.3 5.3 5.0 5.2 5.3 4.4 4.2 4.0 3.8 4.0 4.1 4.5 4.3 3.8 4.0 3.6 3.7 3.8 3.5 2.9 3.0 3.2 3.3
nan nan 2.4 2.2 2.7 2.6 2.9 nan 2.5 2.6 2.5 2.6 2.7 2.7 2.9 3.0 3.0 3.0 3.5 3.4 5.4 5.3 5.0 5.3 5.3 5.1 5.6 6.7 6.2 7.4 7.3 7.4 7.5 5.2 3.9 3.9 4.4 4.3 4.4 4.3 4.3 4.4 4.3 4.0 4.3 3.7 3.7 3.7 3.3 3.2 3.2 3.2 3.6 3.7
nan 2.5 2.5 2.5 2.9 7.7 9.3 2.7 3.4 2.5 2.9 2.7 2.7 2.8 2.9 2.9 3.2 3.0 3.6 5.9 5.7 5.5 6.1 6.4 7.0 6.9 6.6 7.2 7.7 7.9 7.5 6.7 3.9 3.7 3.8 3.8 3.8 3.6 3.9 4.2 4.1 3.9 4.3 4.8 4.5 4.2 4.1 3.3 3.5 3.3 3.3 3.7 4.1 4.4
nan 2.9 3.1 2.9 6.7 6.8 2.6 3.3 3.1 2.8 2.7 2.8 2.9 3.5 3.2 2.9 3.0 3.3 4.2 5.2 6.0 5.7 5.8 7.5 5.7 5.4 5.4 7.8 5.5 4.6 3.5 2.9 3.2 3.4 3.3 3.5 3.9 4.3 3.9 4.1 4.0 4.0 4.5 4.8 4.2 4.0 4.1 3.5 3.2 4.4 4.1 3.9 4.0 4.6
7.3 6.3 3.0 9.6 2.7 3.3 3.3 3.1 3.6 3.2 3.9 3.3 3.9 3.4 3.4 2.9 3.9 4.0 6.2 6.4 4.9 5.1 5.2 4.7 4.5 4.6 4.4 3.8 3.7 4.0 4.1 3.5 4.1 4.3 3.8 3.5 3.7 3.8 4.2 4.2 4.2 4.3 3.8 3.6 3.7 3.6 3.7 3.7 3.7 4.0 4.4 4.0 5.1 4.8
7.9 3.3 8.7 2.9 3.2 3.1 3.2 4.3 4.1 3.7 3.8 4.1 3.5 3.3 2.9 3.5 4.6 5.1 6.9 5.5 4.7 4.9 4.0 3.9 4.0 4.1 4.6 4.1 4.7 5.1 4.7 3.7 3.8 4.3 4.3 3.7 3.7 4.0 4.6 4.7 4.7 4.3 3.9 3.4 3.7 3.8 3.9 3.8 4.0 4.4 4.3 4.5 3.5 4.7
8.2 4.1 2.8 2.5 2.9 2.7 3.8 3.1 2.7 3.4 4.3 4.7 4.2 4.0 3.7 5.8 5.1 7.0 6.4 5.9 6.1 5.3 4.5 3.9 4.1 4.5 5.0 5.0 4.9 4.9 4.5 4.2 4.5 5.1 4.0 3.9 4.2 4.7 4.7 4.6 5.4 5.0 4.0 3.6 3.4 3.3 3.8 4.1 4.3 4.6 4.8 4.6 4.6 4.9
4.0 3.5 6.9 3.2 3.8 3.1 4.5 4.5 4.1 4.4 4.4 5.4 4.3 4.8 4.9 5.3 6.7 6.6 6.8 5.3 4.4 4.1 3.9 4.0 4.0 4.3 4.5 4.9 5.1 5.8 5.3 5.2 5.3 5.0 4.8 4.8 5.0 5.3 5.4 4.9 4.9 3.0 4.5 4.2 3.6 3.7 4.1 4.2 4.5 4.5 4.8 5.0 5.4 5.0
4.0 3.1 3.5 8.2 6.0 4.3 4.7 4.6 4.7 4.8 5.2 3.9 5.0 5.4 6.0 6.9 6.4 6.6 6.9 5.9 4.3 4.5 5.3 5.5 6.5 4.7 5.3 5.0 5.0 5.4 5.3 5.4 5.5 6.4 5.3 7.1 6.0 5.7 5.6 5.4 5.3 5.2 5.1 5.1 3.0 3.6 4.3 4.8 4.8 4.8 4.5 5.0 5.4 5.8
4.4 3.0 4.2 5.0 8.7 6.3 4.3 4.4 4.3 3.9 4.1 4.1 4.4 6.0 6.9 7.5 7.5 5.4 6.2 6.0 6.7 6.0 4.9 4.9 5.6 5.3 5.4 6.1 6.6 6.4 6.0 5.2 5.5 5.2 5.9 6.5 6.1 5.8 5.6 5.3 5.2 5.1 5.1 4.7 5.6 6.6 3.5 5.4 4.1 5.3 6.2 6.7 6.6 6.9
3.4 3.4 4.1 4.1 5.1 3.9 4.1 4.0 3.7 3.9 3.9 4.3 4.3 5.1 6.1 6.9 7.1 7.3 7.3 7.3 6.4 4.8 4.9 5.4 5.5 5.0 5.7 6.6 5.7 6.0 6.9 5.5 6.7 6.6 6.5 6.7 5.9 5.4 5.1 5.3 5.2 5.2 5.2 5.4 5.4 6.2 6.7 6.2 5.8 6.2 7.1 7.5 8.1 8.2
3.9 3.9 6.5 7.3 5.3 4.1 4.0 4.1 4.4 4.6 4.3 5.1 5.1 4.6 5.6 6.2 7.8 8.4 8.7 7.2 6.3 6.1 3.3 6.1 5.9 7.5 6.4 6.7 6.0 6.4 3.2 7.4 7.5 7.6 5.8 6.7 6.1 5.6 5.7 5.9 5.2 5.1 5.5 5.6 6.0 6.2 6.4 6.7 7.4 7.3 7.8 8.0 8.3 8.6
4.2 4.4 4.8 5.9 5.3 4.6 5.0 4.7 4.6 4.7 5.9 6.0 5.8 5.7 5.9 7.1 8.3 8.2 7.9 7.5 7.2 6.5 6.9 6.1 6.3 5.8 6.6 6.4 7.4 7.4 4.6 8.1 6.0 3.0 3.0 3.0 3.0 3.6 6.5 5.8 5.4 5.8 6.3 6.0 6.1 6.9 6.6 7.6 8.6 8.0 8.4 8.3 8.5 8.7